Location: Ulm
(48.3980°N, 9.9777°E)
Time: 17:57:42
(UTC+02:00)

ISS - Pass Details

Date: 08 January 2018
Orbit: 401 x 409 km, 51.6° (Epoch: 19 August)

Event Time Altitude Azimuth Distance (km) Brightness Sun altitude
Exits shadow 05:21:50 21° 64° (ENE) 1,004 -1.3 -27.0°
Drops below altitude 10° 05:23:12 10° 74° (ENE) 1,512 -0.1 -26.8°
Enters shadow 06:18:40 -70° 278° (W) 12,440 3.7 -17.7°
Maximum altitude 06:56:53 75° 19° (NNE) 443 -3.7 -11.7°
